TimeMST,TemperatureF,Dew PointF,Humidity,Sea Level PressureIn,VisibilityMPH,Wind Direction,Wind SpeedMPH,Gust SpeedMPH,PrecipitationIn,Events,Conditions,WindDirDegrees,DateUTC
12:53 AM,-0.9,-5.1,83,30.15,10.0,NNE,5.8,-,N/A,,Partly Cloudy,30,2013-02-27 07:53:00
1:50 AM,-2.2,-5.8,85,30.02,10.0,NNE,5.8,-,N/A,,Overcast,30,2013-02-27 08:50:00
1:53 AM,-2.0,-6.0,83,30.16,10.0,NNE,5.8,-,N/A,,Overcast,30,2013-02-27 08:53:00
2:42 AM,-5.8,-9.4,84,30.02,10.0,NE,8.1,-,N/A,,Scattered Clouds,40,2013-02-27 09:42:00
2:53 AM,-2.9,-8.0,79,30.17,10.0,NNE,8.1,-,N/A,,Clear,30,2013-02-27 09:53:00
3:53 AM,-5.1,-9.0,83,30.21,10.0,NE,8.1,-,N/A,,Partly Cloudy,40,2013-02-27 10:53:00
4:36 AM,-4.0,-9.4,78,30.04,10.0,NE,8.1,-,N/A,,Mostly Cloudy,40,2013-02-27 11:36:00
4:53 AM,-4.0,-9.0,79,30.23,10.0,ENE,9.2,-,N/A,,Mostly Cloudy,60,2013-02-27 11:53:00
5:03 AM,-2.2,-9.4,71,30.05,10.0,NE,8.1,-,N/A,,Scattered Clouds,50,2013-02-27 12:03:00
5:53 AM,-5.1,-11.0,76,30.25,10.0,NNE,5.8,-,N/A,,Clear,30,2013-02-27 12:53:00
6:53 AM,-4.0,-9.9,76,30.29,10.0,NNE,4.6,-,N/A,,Scattered Clouds,20,2013-02-27 13:53:00
7:14 AM,-5.8,-11.2,77,30.09,10.0,NNE,5.8,-,N/A,,Mostly Cloudy,20,2013-02-27 14:14:00
7:53 AM,1.0,-5.1,75,30.29,10.0,NE,5.8,-,N/A,,Mostly Cloudy,50,2013-02-27 14:53:00
8:05 AM,1.4,-4.0,78,30.10,10.0,NE,3.5,-,N/A,,Scattered Clouds,40,2013-02-27 15:05:00
8:53 AM,7.0,-2.0,67,30.28,10.0,NNE,6.9,-,N/A,,Clear,30,2013-02-27 15:53:00
9:53 AM,10.9,-4.0,51,30.27,10.0,NNE,8.1,-,N/A,,Clear,30,2013-02-27 16:53:00
10:53 AM,14.0,-2.9,47,30.21,10.0,WNW,9.2,-,N/A,,Partly Cloudy,300,2013-02-27 17:53:00
11:53 AM,16.0,-6.0,38,30.23,10.0,NW,5.8,-,N/A,,Overcast,310,2013-02-27 18:53:00
12:53 PM,17.1,-7.1,34,30.22,10.0,West,15.0,24.2,N/A,,Clear,280,2013-02-27 19:53:00
1:53 PM,17.1,-5.1,37,30.21,10.0,West,13.8,17.3,N/A,,Overcast,260,2013-02-27 20:53:00
2:53 PM,16.0,-0.9,47,30.24,10.0,NW,11.5,17.3,N/A,,Overcast,320,2013-02-27 21:53:00
3:53 PM,17.1,-2.0,43,30.25,10.0,NW,12.7,19.6,N/A,,Partly Cloudy,320,2013-02-27 22:53:00
4:53 PM,14.0,-4.0,45,30.26,10.0,WNW,12.7,-,N/A,,Clear,300,2013-02-27 23:53:00
5:53 PM,10.9,-5.1,49,30.32,10.0,NW,11.5,-,N/A,,Clear,320,2013-02-28 00:53:00
6:53 PM,7.0,-6.0,55,30.35,10.0,NW,8.1,-,N/A,,Clear,310,2013-02-28 01:53:00
7:53 PM,6.1,-4.0,63,30.34,10.0,Calm,Calm,-,N/A,,Mostly Cloudy,0,2013-02-28 02:53:00
8:08 PM,5.0,-4.0,66,30.15,10.0,Variable,3.5,-,N/A,,Overcast,0,2013-02-28 03:08:00
8:53 PM,1.9,-4.0,76,30.34,10.0,NE,5.8,-,N/A,,Mostly Cloudy,40,2013-02-28 03:53:00
9:08 PM,1.4,-5.8,72,30.16,10.0,NE,4.6,-,N/A,,Scattered Clouds,40,2013-02-28 04:08:00
9:53 PM,-0.0,-5.1,79,30.33,10.0,ENE,5.8,-,N/A,,Clear,60,2013-02-28 04:53:00
10:53 PM,-0.9,-7.1,75,30.30,10.0,ENE,6.9,-,N/A,,Clear,60,2013-02-28 05:53:00
11:53 PM,-5.1,-11.0,76,30.33,10.0,NE,5.8,-,N/A,,Clear,50,2013-02-28 06:53:00